Time,TemperatureF,DewpointF,PressureIn,WindDirection,WindDirectionDegrees,WindSpeedMPH,WindSpeedGustMPH,Humidity,HourlyPrecipIn,Conditions,Clouds,dailyrainin,SolarRadiationWatts/m^2,SoftwareType,DateUTC
2013-04-11 00:12:00,36.1,34.0,29.83,NW,318,1.0,11.0,93,0.00,,,0.46,0,weatherlink.com 1.10,2013-04-11 05:12:00,
2013-04-11 00:27:00,36.0,34.0,29.83,WNW,286,8.0,12.0,93,0.00,,,0.46,0,weatherlink.com 1.10,2013-04-11 05:27:00,
2013-04-11 00:42:00,35.5,34.0,29.83,West,275,8.0,12.0,93,0.00,,,0.46,0,weatherlink.com 1.10,2013-04-11 05:42:00,
2013-04-11 00:57:00,35.4,34.0,29.83,West,274,12.0,12.0,93,0.00,,,0.46,0,weatherlink.com 1.10,2013-04-11 05:57:00,
2013-04-11 01:12:00,35.4,34.0,29.83,West,261,4.0,8.0,93,0.00,,,0.46,0,weatherlink.com 1.10,2013-04-11 06:12:00,
2013-04-11 01:27:00,35.3,34.0,29.84,NNW,342,3.0,10.0,93,0.00,,,0.46,0,weatherlink.com 1.10,2013-04-11 06:27:00,
2013-04-11 01:42:00,35.3,34.0,29.84,NW,325,2.0,9.0,93,0.00,,,0.46,0,weatherlink.com 1.10,2013-04-11 06:42:00,
2013-04-11 01:57:00,35.3,34.0,29.84,West,276,2.0,13.0,93,0.00,,,0.46,0,weatherlink.com 1.10,2013-04-11 06:57:00,
2013-04-11 02:12:00,35.2,33.0,29.83,WSW,256,5.0,12.0,92,0.00,,,0.46,0,weatherlink.com 1.10,2013-04-11 07:12:00,
2013-04-11 02:27:00,35.2,33.0,29.82,West,259,5.0,10.0,92,0.00,,,0.46,0,weatherlink.com 1.10,2013-04-11 07:27:00,
2013-04-11 02:42:00,35.1,33.0,29.79,NW,314,5.0,11.0,92,0.00,,,0.46,0,weatherlink.com 1.10,2013-04-11 07:42:00,
2013-04-11 02:57:00,34.9,33.0,29.78,SW,236,0.0,8.0,92,0.00,,,0.46,0,weatherlink.com 1.10,2013-04-11 07:57:00,
2013-04-11 03:12:00,34.8,33.0,29.78,WNW,292,10.0,12.0,91,0.00,,,0.46,0,weatherlink.com 1.10,2013-04-11 08:12:00,
2013-04-11 03:27:00,34.7,32.0,29.78,NW,317,6.0,9.0,91,0.00,,,0.46,0,weatherlink.com 1.10,2013-04-11 08:27:00,
2013-04-11 03:42:00,34.6,32.0,29.78,WNW,297,2.0,12.0,91,0.00,,,0.46,0,weatherlink.com 1.10,2013-04-11 08:42:00,
2013-04-11 03:57:00,34.5,32.0,29.78,West,267,2.0,6.0,91,0.00,,,0.46,0,weatherlink.com 1.10,2013-04-11 08:57:00,
2013-04-11 04:12:00,34.5,32.0,29.78,West,269,2.0,7.0,91,0.00,,,0.46,0,weatherlink.com 1.10,2013-04-11 09:12:00,
2013-04-11 04:27:00,34.6,32.0,29.77,WNW,289,4.0,9.0,90,0.00,,,0.46,0,weatherlink.com 1.10,2013-04-11 09:27:00,
2013-04-11 04:42:00,34.4,32.0,29.77,WNW,303,4.0,8.0,90,0.00,,,0.46,0,weatherlink.com 1.10,2013-04-11 09:42:00,
2013-04-11 04:57:00,34.5,32.0,29.78,WNW,286,4.0,11.0,89,0.00,,,0.46,0,weatherlink.com 1.10,2013-04-11 09:57:00,
2013-04-11 05:12:00,34.5,32.0,29.78,WSW,237,1.0,8.0,89,0.00,,,0.46,0,weatherlink.com 1.10,2013-04-11 10:12:00,
2013-04-11 05:27:00,34.4,31.0,29.79,NW,309,2.0,11.0,88,0.00,,,0.46,0,weatherlink.com 1.10,2013-04-11 10:27:00,
2013-04-11 05:42:00,34.5,31.0,29.79,NW,320,0.0,8.0,87,0.00,,,0.46,0,weatherlink.com 1.10,2013-04-11 10:42:00,
2013-04-11 05:57:00,34.3,30.0,29.80,WNW,286,1.0,9.0,85,0.00,,,0.46,0,weatherlink.com 1.10,2013-04-11 10:57:00,
2013-04-11 06:12:00,34.3,30.0,29.79,NW,313,1.0,7.0,84,0.00,,,0.46,0,weatherlink.com 1.10,2013-04-11 11:12:00,
2013-04-11 06:27:00,34.3,30.0,29.79,SSW,208,0.0,9.0,85,0.00,,,0.46,0,weatherlink.com 1.10,2013-04-11 11:27:00,
2013-04-11 06:42:00,34.3,30.0,29.78,SW,217,3.0,7.0,85,0.00,,,0.46,0,weatherlink.com 1.10,2013-04-11 11:42:00,
2013-04-11 06:57:00,34.3,30.0,29.78,NNW,335,2.0,9.0,84,0.00,,,0.46,0,weatherlink.com 1.10,2013-04-11 11:57:00,
2013-04-11 07:12:00,34.3,30.0,29.79,WSW,238,2.0,10.0,84,0.00,,,0.46,0,weatherlink.com 1.10,2013-04-11 12:12:00,
2013-04-11 07:27:00,34.3,30.0,29.80,West,272,3.0,5.0,84,0.00,,,0.46,7,weatherlink.com 1.10,2013-04-11 12:27:00,
2013-04-11 07:42:00,34.4,30.0,29.80,South,186,2.0,6.0,84,0.00,,,0.46,9,weatherlink.com 1.10,2013-04-11 12:42:00,
2013-04-11 07:57:00,34.3,30.0,29.80,WSW,247,0.0,8.0,84,0.00,,,0.46,19,weatherlink.com 1.10,2013-04-11 12:57:00,
2013-04-11 08:12:00,34.4,30.0,29.81,SW,234,5.0,5.0,84,0.00,,,0.46,32,weatherlink.com 1.10,2013-04-11 13:12:00,
2013-04-11 08:27:00,34.4,30.0,29.80,SW,236,1.0,9.0,84,0.00,,,0.46,39,weatherlink.com 1.10,2013-04-11 13:27:00,
2013-04-11 08:57:00,34.4,30.0,29.78,SW,235,3.0,8.0,84,0.00,,,0.46,26,weatherlink.com 1.10,2013-04-11 13:57:00,
2013-04-11 09:12:00,34.1,30.0,29.79,WSW,240,3.0,9.0,83,0.00,,,0.46,47,weatherlink.com 1.10,2013-04-11 14:12:00,
2013-04-11 09:27:00,34.1,30.0,29.79,SW,218,3.0,8.0,83,0.00,,,0.46,69,weatherlink.com 1.10,2013-04-11 14:27:00,
2013-04-11 09:42:00,34.2,29.0,29.79,South,185,1.0,8.0,81,0.00,,,0.46,72,weatherlink.com 1.10,2013-04-11 14:42:00,
2013-04-11 09:57:00,34.1,29.0,29.78,West,263,3.0,9.0,80,0.00,,,0.46,84,weatherlink.com 1.10,2013-04-11 14:57:00,
2013-04-11 10:12:00,34.1,28.0,29.79,SW,219,3.0,11.0,79,0.00,,,0.46,111,weatherlink.com 1.10,2013-04-11 15:12:00,
2013-04-11 10:27:00,34.4,28.0,29.79,West,277,8.0,11.0,78,0.00,,,0.00,151,weatherlink.com 1.10,2013-04-11 15:27:00,
2013-04-11 10:43:00,34.7,28.0,29.79,WSW,251,5.0,11.0,77,0.00,,,0.00,142,weatherlink.com 1.10,2013-04-11 15:43:00,
2013-04-11 10:58:00,35.2,29.0,29.78,WNW,294,4.0,8.0,78,0.00,,,0.00,156,weatherlink.com 1.10,2013-04-11 15:58:00,
2013-04-11 11:13:00,35.2,29.0,29.79,WNW,289,7.0,11.0,77,0.00,,,0.00,193,weatherlink.com 1.10,2013-04-11 16:13:00,
2013-04-11 11:28:00,35.5,29.0,29.78,WNW,294,7.0,9.0,76,0.00,,,0.00,255,weatherlink.com 1.10,2013-04-11 16:28:00,
2013-04-11 11:43:00,35.9,29.0,29.79,SSW,195,4.0,8.0,75,0.00,,,0.00,267,weatherlink.com 1.10,2013-04-11 16:43:00,
2013-04-11 11:58:00,36.6,29.0,29.79,West,281,2.0,10.0,74,0.00,,,0.00,297,weatherlink.com 1.10,2013-04-11 16:58:00,
2013-04-11 12:13:00,37.3,30.0,29.78,South,187,2.0,8.0,74,0.00,,,0.00,330,weatherlink.com 1.10,2013-04-11 17:13:00,
2013-04-11 12:28:00,38.0,30.0,29.79,WNW,296,2.0,10.0,72,0.00,,,0.00,390,weatherlink.com 1.10,2013-04-11 17:28:00,
2013-04-11 12:43:00,38.3,30.0,29.77,SSW,202,2.0,13.0,71,0.00,,,0.00,313,weatherlink.com 1.10,2013-04-11 17:43:00,
2013-04-11 12:58:00,39.5,30.0,29.77,WNW,292,2.0,11.0,69,0.00,,,0.00,387,weatherlink.com 1.10,2013-04-11 17:58:00,
2013-04-11 13:13:00,39.2,30.0,29.78,WNW,299,5.0,10.0,70,0.00,,,0.00,427,weatherlink.com 1.10,2013-04-11 18:13:00,
2013-04-11 13:28:00,39.7,30.0,29.77,WNW,300,2.0,12.0,69,0.00,,,0.00,461,weatherlink.com 1.10,2013-04-11 18:28:00,
2013-04-11 13:43:00,40.2,30.0,29.77,NW,319,3.0,10.0,68,0.00,,,0.00,561,weatherlink.com 1.10,2013-04-11 18:43:00,
2013-04-11 13:58:00,40.1,29.0,29.77,WNW,283,3.0,10.0,65,0.00,,,0.00,236,weatherlink.com 1.10,2013-04-11 18:58:00,
2013-04-11 14:13:00,39.9,29.0,29.77,SW,223,3.0,11.0,66,0.00,,,0.00,243,weatherlink.com 1.10,2013-04-11 19:13:00,
2013-04-11 14:28:00,39.7,29.0,29.77,West,276,5.0,8.0,67,0.00,,,0.00,176,weatherlink.com 1.10,2013-04-11 19:28:00,
2013-04-11 14:43:00,39.9,30.0,29.77,West,267,5.0,9.0,67,0.00,,,0.00,267,weatherlink.com 1.10,2013-04-11 19:43:00,
2013-04-11 14:58:00,40.1,30.0,29.76,WNW,302,4.0,9.0,67,0.00,,,0.00,399,weatherlink.com 1.10,2013-04-11 19:58:00,
2013-04-11 15:13:00,41.2,31.0,29.76,WSW,254,7.0,10.0,66,0.00,,,0.00,343,weatherlink.com 1.10,2013-04-11 20:13:00,
2013-04-11 15:28:00,41.7,31.0,29.75,NW,323,2.0,11.0,67,0.00,,,0.00,338,weatherlink.com 1.10,2013-04-11 20:28:00,
2013-04-11 15:43:00,42.8,30.0,29.75,SW,223,3.0,10.0,62,0.00,,,0.00,299,weatherlink.com 1.10,2013-04-11 20:43:00,
2013-04-11 15:58:00,42.1,30.0,29.74,SW,228,4.0,9.0,62,0.00,,,0.00,183,weatherlink.com 1.10,2013-04-11 20:58:00,
2013-04-11 16:13:00,41.3,29.0,29.74,NW,317,1.0,11.0,63,0.00,,,0.00,128,weatherlink.com 1.10,2013-04-11 21:13:00,
2013-04-11 16:28:00,41.0,30.0,29.74,West,272,5.0,9.0,64,0.00,,,0.00,200,weatherlink.com 1.10,2013-04-11 21:28:00,
2013-04-11 16:43:00,41.1,29.0,29.75,NW,321,3.0,12.0,63,0.00,,,0.00,186,weatherlink.com 1.10,2013-04-11 21:43:00,
2013-04-11 16:58:00,41.2,29.0,29.75,WNW,303,5.0,12.0,62,0.00,,,0.00,225,weatherlink.com 1.10,2013-04-11 21:58:00,
2013-04-11 17:13:00,41.2,29.0,29.75,West,259,3.0,12.0,62,0.00,,,0.00,146,weatherlink.com 1.10,2013-04-11 22:13:00,
2013-04-11 17:28:00,41.2,29.0,29.75,WSW,254,7.0,12.0,62,0.00,,,0.00,127,weatherlink.com 1.10,2013-04-11 22:28:00,
2013-04-11 17:43:00,41.1,29.0,29.75,SW,234,2.0,13.0,63,0.00,,,0.00,93,weatherlink.com 1.10,2013-04-11 22:43:00,
2013-04-11 17:58:00,40.7,28.0,29.75,WSW,252,7.0,17.0,62,0.00,,,0.00,86,weatherlink.com 1.10,2013-04-11 22:58:00,
2013-04-11 18:14:00,40.5,29.0,29.75,West,259,6.0,14.0,63,0.00,,,0.00,67,weatherlink.com 1.10,2013-04-11 23:14:00,
2013-04-11 18:28:00,40.2,29.0,29.76,WNW,298,3.0,12.0,65,0.00,,,0.00,40,weatherlink.com 1.10,2013-04-11 23:28:00,
2013-04-11 18:43:00,39.9,29.0,29.76,WSW,242,5.0,10.0,65,0.00,,,0.00,25,weatherlink.com 1.10,2013-04-11 23:43:00,
2013-04-11 18:58:00,39.8,29.0,29.76,West,265,2.0,9.0,65,0.00,,,0.00,21,weatherlink.com 1.10,2013-04-11 23:58:00,
2013-04-11 19:13:00,39.7,29.0,29.77,West,272,5.0,14.0,65,0.00,,,0.00,21,weatherlink.com 1.10,2013-04-12 00:13:00,
2013-04-11 19:28:00,39.5,29.0,29.77,West,279,4.0,9.0,65,0.00,,,0.00,7,weatherlink.com 1.10,2013-04-12 00:28:00,
2013-04-11 19:43:00,39.4,29.0,29.78,WNW,286,5.0,7.0,67,0.00,,,0.00,0,weatherlink.com 1.10,2013-04-12 00:43:00,
2013-04-11 19:58:00,39.2,29.0,29.78,WNW,298,5.0,9.0,66,0.00,,,0.00,0,weatherlink.com 1.10,2013-04-12 00:58:00,
2013-04-11 20:15:00,39.1,29.0,29.78,West,273,2.0,8.0,66,0.00,,,0.00,0,weatherlink.com 1.10,2013-04-12 01:15:00,
2013-04-11 20:28:00,39.1,29.0,29.78,WSW,257,3.0,8.0,66,0.00,,,0.00,0,weatherlink.com 1.10,2013-04-12 01:28:00,
2013-04-11 20:43:00,39.0,28.0,29.79,WNW,295,4.0,8.0,66,0.00,,,0.00,0,weatherlink.com 1.10,2013-04-12 01:43:00,
2013-04-11 20:58:00,39.0,28.0,29.79,West,270,4.0,9.0,65,0.00,,,0.00,0,weatherlink.com 1.10,2013-04-12 01:58:00,
2013-04-11 21:14:00,38.9,28.0,29.79,WSW,242,3.0,7.0,65,0.00,,,0.00,0,weatherlink.com 1.10,2013-04-12 02:14:00,
2013-04-11 21:29:00,38.9,28.0,29.80,NW,304,3.0,7.0,65,0.00,,,0.00,0,weatherlink.com 1.10,2013-04-12 02:29:00,
2013-04-11 21:44:00,38.7,28.0,29.80,WNW,291,2.0,5.0,66,0.00,,,0.00,0,weatherlink.com 1.10,2013-04-12 02:44:00,
2013-04-11 21:59:00,38.7,28.0,29.81,SSW,212,3.0,9.0,65,0.00,,,0.00,0,weatherlink.com 1.10,2013-04-12 02:59:00,
2013-04-11 22:14:00,38.7,28.0,29.80,West,277,4.0,7.0,66,0.00,,,0.00,0,weatherlink.com 1.10,2013-04-12 03:14:00,
2013-04-11 22:29:00,38.6,28.0,29.80,West,275,2.0,7.0,66,0.00,,,0.00,0,weatherlink.com 1.10,2013-04-12 03:29:00,
2013-04-11 22:44:00,38.3,28.0,29.81,WNW,298,3.0,8.0,67,0.00,,,0.00,0,weatherlink.com 1.10,2013-04-12 03:44:00,
2013-04-11 22:59:00,38.1,28.0,29.81,WNW,292,2.0,14.0,67,0.00,,,0.00,0,weatherlink.com 1.10,2013-04-12 03:59:00,
2013-04-11 23:14:00,38.2,28.0,29.81,WNW,296,2.0,8.0,66,0.00,,,0.00,0,weatherlink.com 1.10,2013-04-12 04:14:00,
2013-04-11 23:29:00,38.1,27.0,29.80,WNW,292,4.0,14.0,65,0.00,,,0.00,0,weatherlink.com 1.10,2013-04-12 04:29:00,
2013-04-11 23:44:00,37.9,28.0,29.80,WNW,302,1.0,8.0,67,0.00,,,0.00,0,weatherlink.com 1.10,2013-04-12 04:44:00,
2013-04-11 23:59:00,37.5,28.0,29.80,WNW,282,1.0,6.0,68,0.00,,,0.00,0,weatherlink.com 1.10,2013-04-12 04:59:00,